Regional Weather Roundup
Issued by NWS Goodland, KS

Home | Current Version | Previous Version | Graphics & Text | Print | Product List | Glossary Off
Versions: 1 2 3 4 5 6 7 8 9 10 11 12 13 14 15 16 17 18 19 20 21 22 23 24 25 26 27 28 29 30 31 32 33 34 35 36 37 38 39 40 41 42 43 44 45 46 47 48 49 50

000
ASUS43 KGLD 220708
RWRGLD

GOODLAND FORECAST AREA HOURLY WEATHER ROUNDUP
NATIONAL WEATHER SERVICE GOODLAND KS
1200 AM MST MON DEC 22 2014

...OFFICIAL OBSERVATIONS...

CITY           SKY/WX    TMP DP  RH WIND       PRES   REMARKS
GOODLAND KS    PTCLDY    39  33  79 NW20      29.58R
HILL CITY KS   MOCLDY    39  35  86 SW6       29.52F
IMPERIAL NEB   CLOUDY    41  31  67 NW17G26   29.55S
MCCOOK NEB     MOCLDY    31  29  92 W12       29.53R
AKRON CO       CLOUDY    35  30  82 NE17      29.59F
BURLINGTON CO  MOCLDY    38  33  82 NW24G32   29.61R
LIMON CO       CLOUDY    32  30  92 NW17      29.67F
$$

...UNOFFICIAL OBSERVATIONS...

CITY           SKY/WX    TMP DP  RH WIND       PRES   REMARKS
COLBY KS       CLEAR     39  37  93 W12       29.55R
GOVE KS          N/A     35  32  89 MISG        N/A
NORTON KS      CLOUDY    36  30  80 SW9       29.50F
TRIBUNE KS     MOCLDY    43  39  87 W13       29.58F
KIT CARSON CO    N/A     37  34  90 MISG        N/A
YUMA CO          N/A     37  32  83 NW28        N/A
$$



USA.gov is the U.S. government's official web portal to all federal, state and local government web resources and services.